KC5EZZ-13 Weather Reports


time (UTC)temp
C
wind
direction
speed
KPH
gust
KPH
rain 1hr
cm
rain 24hr
cm
rain mn
cm
humidity
%
barometer
mb
20260506140054 11 273 6.4 29.0 0.10 0.10 0.10 68 1014.9
20260506134618 11 66 8.0 16.1 0.03 0.03 0.03 68 1014.5
20260506133056 12 60 4.8 19.3 0.00 0.00 0.00 67 1015.7
20260506131608 12 335 9.7 24.1 0.00 0.00 0.00 67 1015.6
20260506130055 12 300 11.3 25.7 0.00 0.00 0.00 67 1014.2
20260506124556 12 22 14.5 24.1 0.00 0.00 0.00 67 1014.1
20260506123055 12 314 4.8 27.4 0.00 0.00 0.00 66 1014.5
20260506121605 13 349 9.7 19.3 0.00 0.00 0.00 66 1013.1
20260506120054 13 343 9.7 16.1 0.00 0.00 0.00 65 1012.9
20260506114556 13 359 9.7 17.7 0.00 0.00 0.00 65 1012.5
20260506113054 13 8 12.9 17.7 0.00 0.00 0.00 65 1012.1
20260506111610 13 34 11.3 17.7 0.00 0.00 0.00 64 1011.7
20260506110055 13 4 9.7 17.7 0.00 0.00 0.00 64 1012.1
20260506104553 13 23 11.3 19.3 0.00 0.00 0.00 63 1012.0
20260506103101 14 34 9.7 16.1 0.00 0.00 0.00 63 1011.8
20260506101557 14 335 8.0 14.5 0.00 0.00 0.00 62 1011.9
20260506100101 14 20 9.7 17.7 0.00 0.00 0.00 62 1011.4
20260506094555 14 16 11.3 19.3 0.00 0.00 0.00 61 1011.1
20260506093057 14 345 8.0 24.1 0.00 0.00 0.00 61 1010.8
20260506091552 15 348 6.4 12.9 0.00 0.00 0.00 60 1010.8
20260506090056 15 7 9.7 14.5 0.00 0.00 0.00 60 1010.7
20260506084601 15 18 8.0 17.7 0.00 0.00 0.00 59 1010.4
20260506083112 16 23 8.0 16.1 0.00 0.00 0.00 59 1010.2
20260506081554 16 359 6.4 12.9 0.00 0.00 0.00 58 1010.3
20260506073056 16 354 3.2 8.0 0.00 0.00 0.00 56 1010.1
20260506071556 16 0 0.0 1.6 0.00 0.00 0.00 55 1010.1
20260506070126 17 58 0.0 6.4 0.00 0.00 0.00 55 1010.0
20260506061553 18 25 0.0 4.8 0.00 0.00 0.00 53 1010.0
20260506050109 20 19 8.0 16.1 0.00 0.00 0.00 49 1009.7
20260506044556 20 29 6.4 12.9 0.00 0.00 0.00 49 1009.5
20260506043058 21 69 4.8 11.3 0.00 0.00 0.00 48 1009.4
20260506041601 21 37 8.0 14.5 0.00 0.00 0.00 47 1009.5
20260506040059 22 8 11.3 14.5 0.00 0.00 0.00 46 1009.4
20260506034557 22 30 9.7 19.3 0.00 0.00 0.00 45 1009.1
20260506033056 23 26 8.0 14.5 0.00 0.00 0.00 45 1009.0
20260506031555 23 17 11.3 19.3 0.00 0.00 0.00 44 1008.7
20260506030053 23 10 9.7 17.7 0.00 0.00 0.00 43 1008.5
20260506024600 24 18 8.0 19.3 0.00 0.00 0.00 42 1008.2
20260506023052 23 288 0.0 1.6 0.00 0.00 0.00 40 1007.6
20260506021554 24 287 0.0 1.6 0.00 0.00 0.00 39 1007.3
20260506020106 24 288 0.0 1.6 0.00 0.00 0.00 38 1007.2
20260506014608 25 0 0.0 0.0 0.00 0.00 0.00 37 1007.0
20260506013055 26 0 0.0 0.0 0.00 0.00 0.00 36 1006.7
20260506011614 26 0 0.0 0.0 0.00 0.00 0.00 36 1006.3
20260506010053 27 0 0.0 0.0 0.00 0.00 0.00 35 1006.1
20260506004603 29 0 0.0 0.0 0.00 0.00 0.00 35 1006.0
20260506003053 30 0 0.0 0.0 0.00 0.00 0.00 35 1005.8
20260506001602 31 284 0.0 1.6 0.00 0.00 0.00 35 1006.0
20260506000118 32 0 0.0 0.0 0.00 0.00 0.00 35 1005.9
20260505234555 33 284 0.0 1.6 0.00 0.00 0.00 36 1005.9
20260505233100 33 0 0.0 1.6 0.00 0.00 0.00 37 1005.8
20260505231604 33 284 0.0 4.8 0.00 0.00 0.00 37 1006.1
20260505230105 33 0 0.0 3.2 0.00 0.00 0.00 38 1006.0
20260505224557 32 286 0.0 11.3 0.00 0.00 0.00 39 1005.9
20260505223103 34 304 0.0 3.2 0.00 0.00 0.00 40 1005.8
20260505221601 33 282 1.6 4.8 0.00 0.00 0.00 40 1005.9
20260505220100 33 2 1.6 4.8 0.00 0.00 0.00 41 1006.0
20260505214557 33 286 3.2 8.0 0.00 0.00 0.00 42 1006.2
20260505213059 34 267 0.0 4.8 0.00 0.00 0.00 44 1006.0
20260505211554 34 276 1.6 6.4 0.00 0.00 0.00 45 1006.1
20260505210057 33 240 0.0 8.0 0.00 0.00 0.00 46 1006.5
20260505204600 34 317 1.6 4.8 0.00 0.00 0.00 48 1006.5
20260505203101 33 297 1.6 6.4 0.00 0.00 0.00 49 1006.7
20260505201553 34 292 1.6 6.4 0.00 0.00 0.00 51 1006.8
20260505200051 34 305 1.6 6.4 0.00 0.00 0.00 53 1006.9
20260505194611 34 0 0.0 9.7 0.00 0.00 0.00 55 1007.1
20260505193054 33 15 1.6 4.8 0.00 0.00 0.00 57 1007.2
20260505191606 33 310 1.6 8.0 0.00 0.00 0.00 59 1007.3
20260505190056 33 231 0.0 6.4 0.00 0.00 0.00 61 1007.6
20260505184554 34 298 0.0 4.8 0.00 0.00 0.00 64 1007.8
20260505183055 33 267 0.0 4.8 0.00 0.00 0.00 65 1008.0
20260505181556 33 0 0.0 6.4 0.00 0.00 0.00 67 1008.1
20260505180058 32 268 0.0 4.8 0.00 0.00 0.00 68 1008.3
20260505174555 32 0 0.0 0.0 0.00 0.00 0.00 70 1008.5
20260505173112 31 232 1.6 6.4 0.00 0.00 0.00 71 1008.5
20260505171613 30 217 0.0 8.0 0.00 0.00 0.00 72 1008.6
20260505170055 30 0 0.0 4.8 0.00 0.00 0.00 73 1008.8
20260505164601 29 141 4.8 16.1 0.00 0.00 0.00 74 1008.7
20260505163057 30 207 0.0 6.4 0.00 0.00 0.00 75 1008.8
20260505161557 28 210 0.0 9.7 0.00 0.00 0.00 75 1008.6
20260505153057 28 202 1.6 11.3 0.00 0.00 0.00 77 1008.7
20260505151559 27 0 0.0 1.6 0.00 0.00 0.00 77 1008.6
20260505150116 27 0 0.0 4.8 0.00 0.00 0.00 78 1008.6